Volver al catálogo

STARLINK-11725

ActivoComunicacionesVLEO
NORAD 64125·PAYLOAD·🇺🇸 United States

Lanzado May 24, 2025 desde Cape Canaveral Space Force Station

Loading…

Próximos Pases (próximas 24 horas)

TLE

ActualizadoSource: CelesTrak SupGP

Época: Sep 14, 2026, 22:37 UTC

1 64125C 25111C   26257.94284722  .00041092  00000+0  31921-3 0  2579
2 64125  43.0004 273.1858 0001571 257.4390  68.2637 15.70814331    15

Sigue STARLINK-11725 en tiempo real con AllMySat

Download on the App Store